DW8873 Weather Reports


Display with metric or nautical units.
time (UTC)temp
F
wind
direction
speed
MPH
gust
MPH
rain 1hr
in
rain 24hr
in
rain mn
in
humidity
%
barometer
mb
20260904062228 70 33 4.0 13.0 0.00 0.00 0.00 52 1015.3
20260904061227 70 42 7.0 13.0 0.00 0.00 0.00 51 1015.3
20260904060154 72 353 3.0 11.0 0.00 0.00 0.00 49 1015.7
20260904055152 74 10 2.0 7.0 0.00 0.00 0.00 41 1015.3
20260904054150 74 296 0.0 2.0 0.00 0.00 0.00 36 1015.7
20260904053148 75 235 0.0 2.0 0.00 0.00 0.00 36 1015.7
20260904052147 76 235 1.0 2.0 0.00 0.00 0.00 36 1015.7
20260904051145 76 224 1.0 2.0 0.00 0.00 0.00 35 1015.7
20260904050144 77 133 1.0 2.0 0.00 0.00 0.00 35 1016.0
20260904045142 76 197 0.0 4.0 0.00 0.00 0.00 35 1016.0
20260904044141 76 13 2.0 4.0 0.00 0.00 0.00 36 1016.4
20260904043108 77 304 1.0 4.0 0.00 0.00 0.00 36 1016.4
20260904042107 77 344 2.0 5.0 0.00 0.00 0.00 37 1016.4
20260904041106 78 258 2.0 6.0 0.00 0.00 0.00 35 1016.7
20260904040033 77 246 1.0 6.0 0.00 0.00 0.00 36 1016.7
20260904035032 77 54 2.0 6.0 0.00 0.00 0.00 36 1016.7
20260904034031 77 276 2.0 5.0 0.00 0.00 0.00 34 1017.0
20260904033029 78 345 2.0 5.0 0.00 0.00 0.00 34 1017.0
20260904032028 76 222 1.0 4.0 0.00 0.00 0.00 35 1017.4
20260904031026 76 217 2.0 4.0 0.00 0.00 0.00 36 1017.4
20260904025953 76 20 2.0 5.0 0.00 0.00 0.00 34 1017.7
20260904024952 77 206 1.0 5.0 0.00 0.00 0.00 37 1017.7
20260904023951 77 111 2.0 5.0 0.00 0.00 0.00 36 1018.1
20260904022949 76 358 1.0 4.0 0.00 0.00 0.00 39 1018.1
20260904021948 75 279 1.0 3.0 0.00 0.00 0.00 39 1018.4
20260904020844 74 77 1.0 5.0 0.00 0.00 0.00 40 1018.7
20260904015842 74 346 1.0 5.0 0.00 0.00 0.00 39 1018.7
20260904014840 74 0 2.0 4.0 0.00 0.00 0.00 41 1018.7
20260904013808 73 294 2.0 3.0 0.00 0.00 0.00 42 1019.1
20260904012807 73 21 1.0 4.0 0.00 0.00 0.00 42 1019.4
20260904011734 72 290 1.0 4.0 0.00 0.00 0.00 43 1019.7
20260904010732 72 247 1.0 4.0 0.00 0.00 0.00 44 1019.7
20260904005731 72 251 1.0 4.0 0.00 0.00 0.00 44 1019.7
20260904004658 72 270 2.0 4.0 0.00 0.00 0.00 42 1020.1
20260904003657 72 358 1.0 4.0 0.00 0.00 0.00 44 1020.1
20260904002655 71 255 2.0 4.0 0.00 0.00 0.00 46 1020.1
20260904001653 70 268 2.0 4.0 0.00 0.00 0.00 47 1020.1
20260904000651 70 243 2.0 4.0 0.00 0.00 0.00 47 1020.4
20260903235650 70 258 1.0 4.0 0.00 0.00 0.00 48 1020.4
20260903234649 69 247 1.0 5.0 0.00 0.00 0.00 49 1020.4
20260903233617 68 270 2.0 5.0 0.00 0.00 0.00 51 1020.7
20260903232615 68 300 2.0 4.0 0.00 0.00 0.00 51 1020.7
20260903231614 68 284 1.0 3.0 0.00 0.00 0.00 53 1021.1
20260903230541 67 244 2.0 4.0 0.00 0.00 0.00 54 1021.1
20260903225539 66 255 1.0 4.0 0.00 0.00 0.00 56 1021.1
20260903224538 65 231 1.0 3.0 0.00 0.00 0.00 56 1021.4
20260903223537 65 258 1.0 3.0 0.00 0.00 0.00 56 1021.1
20260903222535 64 205 1.0 3.0 0.00 0.00 0.00 57 1021.4
20260903221533 64 311 1.0 4.0 0.00 0.00 0.00 58 1021.1
20260903220532 62 240 1.0 3.0 0.00 0.00 0.00 55 1021.4
20260903215531 61 195 1.0 4.0 0.00 0.00 0.00 54 1021.1
20260903214530 60 253 0.0 4.0 0.00 0.00 0.00 51 1021.1
20260903213528 60 281 1.0 2.0 0.00 0.00 0.00 45 1021.1
20260903212526 58 255 1.0 2.0 0.00 0.00 0.00 32 1021.0
20260903211524 56 255 0.0 1.0 0.00 0.00 0.00 4 1020.7
20260903210523 55 255 0.0 1.0 0.00 0.00 0.00 7 1020.7
20260903205521 55 255 0.0 1.0 0.00 0.00 0.00 7 1020.7
20260903204448 55 255 0.0 1.0 0.00 0.00 0.00 11 1020.4
20260903203446 54 255 0.0 0.0 0.00 0.00 0.00 9 1020.4
20260903202444 54 255 0.0 0.0 0.00 0.00 0.00 12 1020.4
20260903201442 55 255 0.0 2.0 0.00 0.00 0.00 22 1020.4
20260903200409 55 255 0.0 2.0 0.00 0.00 0.00 22 1020.0
20260903195408 55 255 1.0 2.0 0.00 0.00 0.00 29 1020.0
20260903194407 56 255 0.0 2.0 0.00 0.00 0.00 33 1019.7
20260903193406 56 255 0.0 1.0 0.00 0.00 0.00 39 1019.7
20260903192405 56 255 0.0 1.0 0.00 0.00 0.00 41 1019.4
20260903191403 57 255 1.0 2.0 0.00 0.00 0.00 45 1019.4
20260903190402 57 255 0.0 2.0 0.00 0.00 0.00 51 1019.4
20260903185401 57 255 0.0 1.0 0.00 0.00 0.00 57 1019.4
20260903184359 57 255 0.0 1.0 0.00 0.00 0.00 58 1019.4
20260903183358 58 255 0.0 1.0 0.00 0.00 0.00 58 1019.4
20260903182356 58 255 0.0 1.0 0.00 0.00 0.00 59 1019.1
20260903181355 58 255 0.0 2.0 0.00 0.00 0.00 60 1018.7
20260903180322 58 255 1.0 2.0 0.00 0.00 0.00 60 1018.7
20260903175320 59 260 0.0 2.0 0.00 0.00 0.00 60 1018.7
20260903174247 59 260 0.0 2.0 0.00 0.00 0.00 60 1018.7
20260903173245 59 261 0.0 3.0 0.00 0.00 0.00 61 1018.7
20260903172244 59 256 1.0 3.0 0.00 0.00 0.00 60 1018.7
20260903171242 59 242 2.0 2.0 0.00 0.00 0.00 60 1018.7
20260903170241 60 246 1.0 3.0 0.00 0.00 0.00 60 1018.7
20260903165240 60 266 1.0 4.0 0.00 0.00 0.00 60 1018.7
20260903164238 60 268 1.0 5.0 0.00 0.00 0.00 60 1018.7
20260903163237 60 251 1.0 5.0 0.00 0.00 0.00 60 1018.7
20260903162235 60 328 1.0 6.0 0.00 0.00 0.00 60 1018.7
20260903161233 60 250 2.0 5.0 0.00 0.00 0.00 60 1018.7
20260903160232 60 244 1.0 4.0 0.00 0.00 0.00 60 1019.1
20260903155230 60 227 2.0 4.0 0.00 0.00 0.00 60 1019.1
20260903154228 60 268 2.0 4.0 0.00 0.00 0.00 60 1019.1
20260903153227 60 257 1.0 3.0 0.00 0.00 0.00 60 1019.1
20260903152225 60 262 1.0 2.0 0.00 0.00 0.00 60 1019.4
20260903151224 60 204 1.0 2.0 0.00 0.00 0.00 60 1019.4
20260903150151 61 203 1.0 3.0 0.00 0.00 0.00 60 1019.4
20260903145150 61 222 1.0 3.0 0.00 0.00 0.00 60 1019.4
20260903144149 61 180 1.0 3.0 0.00 0.00 0.00 60 1019.4
20260903143147 61 274 2.0 5.0 0.00 0.00 0.00 59 1019.4
20260903142146 61 253 1.0 9.0 0.00 0.00 0.00 59 1019.1
20260903141145 61 244 2.0 9.0 0.00 0.00 0.00 59 1019.4
20260903140143 62 266 2.0 6.0 0.00 0.00 0.00 59 1019.1
20260903135142 62 265 1.0 6.0 0.00 0.00 0.00 59 1019.1
20260903134141 62 243 2.0 5.0 0.00 0.00 0.00 59 1019.1
20260903133140 62 266 1.0 6.0 0.00 0.00 0.00 58 1019.1
20260903132138 62 255 2.0 6.0 0.00 0.00 0.00 58 1018.8
20260903131137 62 250 1.0 5.0 0.00 0.00 0.00 58 1018.8
20260903130136 63 243 2.0 4.0 0.00 0.00 0.00 58 1018.8
20260903125135 63 260 2.0 4.0 0.00 0.00 0.00 58 1018.4
20260903124134 63 249 1.0 1.0 0.00 0.00 0.00 57 1018.4
20260903123132 63 258 0.0 2.0 0.00 0.00 0.00 57 1018.4
20260903122059 64 257 1.0 4.0 0.00 0.00 0.00 56 1018.4
20260903121057 64 273 1.0 6.0 0.00 0.00 0.00 56 1018.1
20260903120056 64 275 1.0 6.0 0.00 0.00 0.00 54 1018.1
20260903115055 65 264 1.0 5.0 0.00 0.00 0.00 54 1017.7
20260903114054 65 256 3.0 5.0 0.00 0.00 0.00 52 1017.7
20260903113052 66 260 1.0 3.0 0.00 0.00 0.00 50 1017.4
20260903112019 66 262 0.0 5.0 0.00 0.00 0.00 49 1017.4
20260903110946 66 220 2.0 5.0 0.00 0.00 0.00 48 1017.1
20260903105945 67 262 2.0 5.0 0.00 0.00 0.00 47 1017.1
20260903104943 66 243 1.0 5.0 0.00 0.00 0.00 46 1016.7
20260903103941 66 249 1.0 3.0 0.00 0.00 0.00 51 1016.4
20260903102940 67 245 1.0 2.0 0.00 0.00 0.00 55 1016.4
20260903101804 67 245 0.0 3.0 0.00 0.00 0.00 55 1016.0
20260903100732 67 243 0.0 3.0 0.00 0.00 0.00 54 1015.7
20260903095731 67 308 1.0 2.0 0.00 0.00 0.00 52 1015.4
20260903094730 68 318 0.0 2.0 0.00 0.00 0.00 50 1015.4
20260903093728 68 318 0.0 1.0 0.00 0.00 0.00 49 1015.0
20260903092727 69 318 0.0 1.0 0.00 0.00 0.00 46 1015.0
20260903091725 69 318 0.0 1.0 0.00 0.00 0.00 43 1014.7
20260903090724 70 318 0.0 1.0 0.00 0.00 0.00 39 1014.3
20260903085722 70 318 1.0 1.0 0.00 0.00 0.00 34 1014.3
20260903084721 71 319 0.0 2.0 0.00 0.00 0.00 32 1014.0
20260903083719 72 319 1.0 2.0 0.00 0.00 0.00 31 1013.7
20260903082718 72 255 1.0 2.0 0.00 0.00 0.00 29 1013.3
20260903081644 73 255 1.0 2.0 0.00 0.00 0.00 29 1013.3
20260903080643 73 257 1.0 5.0 0.00 0.00 0.00 28 1013.0
20260903075642 74 225 0.0 6.0 0.00 0.00 0.00 27 1013.0
20260903074609 75 264 2.0 3.0 0.00 0.00 0.00 28 1012.7
20260903073608 75 47 0.0 3.0 0.00 0.00 0.00 30 1012.7
20260903072607 76 47 1.0 3.0 0.00 0.00 0.00 30 1012.3
20260903071605 76 48 0.0 4.0 0.00 0.00 0.00 31 1012.0
20260903070604 77 73 2.0 4.0 0.00 0.00 0.00 30 1011.7
20260903065532 77 208 1.0 5.0 0.00 0.00 0.00 31 1011.7
20260903064530 77 104 2.0 5.0 0.00 0.00 0.00 32 1011.3
20260903063529 78 258 1.0 8.0 0.00 0.00 0.00 33 1011.3